Location: Rancho Santa Fe Post Office
(33.0184°N, 117.2026°W)
Time: 02:30:08
(UTC+00:00)

Chandra Rocket (1) - Pass Details

Date: 10 September 2024
Orbit: 283 x 10834 km, 28.4° (Epoch: 06 October)

Event Time Altitude Azimuth Distance (km) Brightness Sun altitude
Exits shadow 12:16:14 29° 236° (WSW) 1,063 2.7 -15.9°
Maximum altitude 12:17:56 52° 174° (S) 906 2.8 -15.5°
Drops below altitude 10° 12:26:37 10° 101° (E) 4,312 7.4 -13.8°
Sets 12:33:13 0° 98° (E) 6,906 8.8 -12.5°
